| time (UTC) | temp F | wind direction | speed MPH | gust MPH | rain 1hr in | rain 24hr in | rain mn in | humidity % | barometer mb |
| 20260505114011 | 57 | 188 | 1.0 | 5.0 | 0.00 | 0.01 | 0.00 | 76 | 1019.7 |
| 20260505113510 | 57 | 190 | 1.0 | 3.0 | 0.00 | 0.01 | 0.00 | 76 | 1019.7 |
| 20260505113011 | 57 | 191 | 0.0 | 0.0 | 0.00 | 0.02 | 0.00 | 76 | 1019.7 |
| 20260505112510 | 57 | 188 | 0.0 | 2.0 | 0.00 | 0.02 | 0.00 | 76 | 1019.6 |
| 20260505111511 | 57 | 188 | 0.0 | 1.0 | 0.00 | 0.02 | 0.00 | 76 | 1019.6 |
| 20260505111012 | 57 | 196 | 0.0 | 1.0 | 0.00 | 0.02 | 0.00 | 77 | 1019.6 |
| 20260505102012 | 57 | 194 | 0.0 | 1.0 | 0.00 | 0.02 | 0.00 | 76 | 1019.6 |
| 20260505100511 | 57 | 188 | 2.0 | 3.0 | 0.00 | 0.02 | 0.00 | 76 | 1019.6 |
| 20260505100013 | 58 | 191 | 0.0 | 0.0 | 0.00 | 0.02 | 0.00 | 75 | 1019.6 |
| 20260505095511 | 58 | 190 | 0.0 | 0.0 | 0.00 | 0.02 | 0.00 | 75 | 1019.6 |
| 20260505095012 | 58 | 192 | 0.0 | 1.0 | 0.00 | 0.02 | 0.00 | 74 | 1019.7 |
| 20260505094012 | 58 | 188 | 0.0 | 1.0 | 0.00 | 0.02 | 0.00 | 74 | 1019.6 |
| 20260505093511 | 58 | 196 | 1.0 | 2.0 | 0.00 | 0.02 | 0.00 | 73 | 1019.6 |
| 20260505093012 | 58 | 188 | 0.0 | 0.0 | 0.00 | 0.02 | 0.00 | 73 | 1019.6 |
| 20260505092511 | 58 | 196 | 0.0 | 0.0 | 0.00 | 0.02 | 0.00 | 73 | 1019.6 |
| 20260505092012 | 58 | 188 | 0.0 | 0.0 | 0.00 | 0.02 | 0.00 | 73 | 1019.6 |
| 20260505091510 | 58 | 190 | 0.0 | 0.0 | 0.00 | 0.02 | 0.00 | 73 | 1019.6 |
| 20260505091012 | 58 | 194 | 0.0 | 0.0 | 0.00 | 0.02 | 0.00 | 73 | 1019.6 |
| 20260505090511 | 58 | 190 | 0.0 | 0.0 | 0.00 | 0.02 | 0.00 | 73 | 1019.6 |
| 20260505085511 | 58 | 190 | 0.0 | 0.0 | 0.00 | 0.02 | 0.00 | 73 | 1019.5 |
| 20260505085012 | 58 | 193 | 0.0 | 0.0 | 0.00 | 0.02 | 0.00 | 72 | 1019.4 |
| 20260505084511 | 58 | 190 | 0.0 | 0.0 | 0.00 | 0.02 | 0.00 | 72 | 1019.5 |
| 20260505084012 | 59 | 197 | 0.0 | 0.0 | 0.00 | 0.02 | 0.00 | 72 | 1019.4 |
| 20260505083510 | 59 | 189 | 0.0 | 2.0 | 0.00 | 0.02 | 0.00 | 72 | 1019.4 |
| 20260505083011 | 59 | 187 | 0.0 | 0.0 | 0.00 | 0.02 | 0.00 | 71 | 1019.3 |
| 20260505082511 | 59 | 197 | 0.0 | 0.0 | 0.00 | 0.02 | 0.00 | 71 | 1019.2 |
| 20260505082012 | 59 | 188 | 0.0 | 0.0 | 0.00 | 0.02 | 0.00 | 71 | 1019.2 |
| 20260505081510 | 59 | 194 | 1.0 | 2.0 | 0.00 | 0.02 | 0.00 | 71 | 1019.1 |
| 20260505081012 | 59 | 189 | 1.0 | 3.0 | 0.00 | 0.02 | 0.00 | 71 | 1019.0 |
| 20260505080511 | 59 | 189 | 0.0 | 2.0 | 0.00 | 0.02 | 0.00 | 70 | 1019.0 |
| 20260505075012 | 59 | 191 | 1.0 | 3.0 | 0.00 | 0.02 | 0.00 | 70 | 1018.8 |
| 20260505074510 | 59 | 183 | 1.0 | 3.0 | 0.00 | 0.02 | 0.00 | 70 | 1018.7 |
| 20260505074012 | 59 | 166 | 0.0 | 1.0 | 0.00 | 0.02 | 0.00 | 69 | 1018.7 |
| 20260505072510 | 60 | 157 | 1.0 | 3.0 | 0.00 | 0.02 | 0.00 | 68 | 1018.6 |
| 20260505071510 | 60 | 174 | 0.0 | 2.0 | 0.00 | 0.02 | 0.00 | 68 | 1018.5 |
| 20260505071012 | 60 | 168 | 0.0 | 1.0 | 0.00 | 0.02 | 0.00 | 68 | 1018.5 |
| 20260505070510 | 60 | 169 | 0.0 | 2.0 | 0.00 | 0.02 | 0.00 | 68 | 1018.5 |
| 20260505070013 | 60 | 183 | 1.0 | 5.0 | 0.00 | 0.02 | 0.00 | 68 | 1018.4 |
| 20260505065011 | 60 | 160 | 0.0 | 1.0 | 0.00 | 0.02 | 0.00 | 69 | 1018.4 |
| 20260505064510 | 60 | 156 | 0.0 | 2.0 | 0.00 | 0.02 | 0.00 | 69 | 1018.4 |
| 20260505064011 | 60 | 162 | 0.0 | 1.0 | 0.00 | 0.02 | 0.00 | 69 | 1018.4 |
| 20260505063510 | 60 | 154 | 0.0 | 2.0 | 0.00 | 0.02 | 0.00 | 68 | 1018.3 |
| 20260505063012 | 60 | 157 | 0.0 | 3.0 | 0.00 | 0.02 | 0.00 | 68 | 1018.3 |
| 20260505062510 | 60 | 155 | 1.0 | 2.0 | 0.00 | 0.02 | 0.00 | 68 | 1018.2 |
| 20260505061510 | 60 | 154 | 1.0 | 5.0 | 0.00 | 0.02 | 0.00 | 68 | 1018.2 |
| 20260505061011 | 60 | 170 | 1.0 | 3.0 | 0.00 | 0.02 | 0.00 | 68 | 1018.2 |
| 20260505060510 | 60 | 167 | 2.0 | 5.0 | 0.00 | 0.02 | 0.00 | 68 | 1018.2 |
| 20260505055012 | 60 | 163 | 1.0 | 3.0 | 0.00 | 0.02 | 0.00 | 68 | 1018.0 |
| 20260505054510 | 60 | 165 | 1.0 | 5.0 | 0.00 | 0.02 | 0.00 | 68 | 1018.0 |
| 20260505054011 | 60 | 161 | 1.0 | 3.0 | 0.00 | 0.02 | 0.00 | 68 | 1017.9 |
| 20260505053012 | 60 | 163 | 3.0 | 6.0 | 0.00 | 0.02 | 0.00 | 66 | 1017.9 |
| 20260505052510 | 60 | 161 | 3.0 | 7.0 | 0.00 | 0.02 | 0.00 | 66 | 1017.8 |
| 20260505052011 | 60 | 148 | 2.0 | 5.0 | 0.00 | 0.02 | 0.00 | 66 | 1017.7 |
| 20260505051510 | 60 | 161 | 3.0 | 5.0 | 0.00 | 0.02 | 0.00 | 66 | 1017.7 |
| 20260505051011 | 60 | 164 | 3.0 | 7.0 | 0.00 | 0.02 | 0.00 | 66 | 1017.6 |
| 20260505050510 | 60 | 171 | 3.0 | 7.0 | 0.00 | 0.02 | 0.00 | 67 | 1017.5 |
| 20260505041011 | 60 | 180 | 3.0 | 7.0 | 0.00 | 0.02 | 0.00 | 68 | 1017.1 |
| 20260505040510 | 60 | 168 | 3.0 | 5.0 | 0.00 | 0.02 | 0.00 | 69 | 1017.2 |
| 20260505040012 | 60 | 178 | 2.0 | 6.0 | 0.00 | 0.02 | 0.00 | 69 | 1017.1 |
| 20260505035511 | 60 | 159 | 2.0 | 6.0 | 0.00 | 0.02 | 0.00 | 69 | 1017.0 |
| 20260505035011 | 60 | 168 | 4.0 | 7.0 | 0.00 | 0.02 | 0.00 | 69 | 1017.0 |
| 20260505034011 | 60 | 157 | 3.0 | 6.0 | 0.00 | 0.02 | 0.00 | 69 | 1017.0 |
| 20260505033510 | 61 | 155 | 2.0 | 5.0 | 0.00 | 0.02 | 0.00 | 69 | 1017.0 |
| 20260505033012 | 61 | 178 | 4.0 | 9.0 | 0.00 | 0.02 | 0.00 | 68 | 1017.0 |
| 20260505032012 | 61 | 166 | 4.0 | 8.0 | 0.00 | 0.02 | 0.00 | 68 | 1017.0 |
| 20260505031511 | 62 | 167 | 1.0 | 8.0 | 0.00 | 0.02 | 0.00 | 68 | 1017.0 |
| 20260505031011 | 62 | 163 | 4.0 | 7.0 | 0.00 | 0.02 | 0.00 | 68 | 1017.0 |
| 20260505030510 | 62 | 160 | 2.0 | 7.0 | 0.00 | 0.02 | 0.00 | 68 | 1017.0 |
| 20260505030013 | 62 | 166 | 4.0 | 8.0 | 0.00 | 0.02 | 0.00 | 67 | 1017.0 |
| 20260505025011 | 62 | 168 | 5.0 | 10.0 | 0.00 | 0.02 | 0.00 | 65 | 1017.0 |
| 20260505024510 | 63 | 166 | 5.0 | 12.0 | 0.00 | 0.02 | 0.00 | 66 | 1017.0 |
| 20260505024013 | 63 | 153 | 5.0 | 10.0 | 0.00 | 0.02 | 0.00 | 66 | 1017.0 |
| 20260505023510 | 63 | 176 | 6.0 | 10.0 | 0.00 | 0.02 | 0.00 | 66 | 1017.0 |
| 20260505023012 | 62 | 168 | 3.0 | 9.0 | 0.00 | 0.02 | 0.00 | 67 | 1017.0 |
| 20260505022012 | 62 | 186 | 3.0 | 9.0 | 0.00 | 0.02 | 0.00 | 67 | 1017.0 |
| 20260505021510 | 62 | 176 | 5.0 | 10.0 | 0.00 | 0.02 | 0.00 | 67 | 1017.0 |
| 20260505021011 | 62 | 174 | 5.0 | 12.0 | 0.00 | 0.02 | 0.00 | 68 | 1017.0 |
| 20260505020511 | 62 | 169 | 6.0 | 15.0 | 0.00 | 0.02 | 0.00 | 68 | 1017.1 |
| 20260505015012 | 62 | 192 | 5.0 | 7.0 | 0.00 | 0.02 | 0.00 | 68 | 1017.1 |
| 20260505014511 | 62 | 149 | 6.0 | 12.0 | 0.00 | 0.02 | 0.00 | 70 | 1017.1 |
| 20260505014011 | 61 | 172 | 5.0 | 12.0 | 0.00 | 0.02 | 0.00 | 71 | 1017.1 |
| 20260505013510 | 61 | 172 | 4.0 | 9.0 | 0.00 | 0.02 | 0.00 | 71 | 1017.2 |
| 20260505012510 | 61 | 173 | 6.0 | 12.0 | 0.00 | 0.02 | 0.00 | 72 | 1017.3 |
| 20260505012011 | 60 | 168 | 6.0 | 12.0 | 0.00 | 0.02 | 0.00 | 72 | 1017.3 |
| 20260505011011 | 60 | 191 | 5.0 | 12.0 | 0.00 | 0.02 | 0.00 | 74 | 1017.3 |
| 20260505010510 | 60 | 155 | 5.0 | 10.0 | 0.00 | 0.02 | 0.00 | 74 | 1017.3 |
| 20260505010012 | 60 | 165 | 6.0 | 9.0 | 0.00 | 0.02 | 0.00 | 75 | 1017.2 |
| 20260505005510 | 60 | 160 | 5.0 | 10.0 | 0.00 | 0.02 | 0.00 | 74 | 1017.2 |
| 20260505005011 | 60 | 188 | 5.0 | 8.0 | 0.00 | 0.02 | 0.00 | 75 | 1017.1 |
| 20260505004509 | 59 | 162 | 6.0 | 12.0 | 0.00 | 0.02 | 0.00 | 75 | 1017.1 |
| 20260505004011 | 59 | 176 | 5.0 | 9.0 | 0.00 | 0.02 | 0.00 | 75 | 1017.0 |
| 20260505003510 | 59 | 174 | 4.0 | 8.0 | 0.00 | 0.02 | 0.00 | 75 | 1017.0 |
| 20260505002510 | 59 | 172 | 5.0 | 9.0 | 0.00 | 0.02 | 0.00 | 76 | 1016.8 |
| 20260505002011 | 59 | 178 | 3.0 | 7.0 | 0.00 | 0.02 | 0.00 | 76 | 1016.8 |
| 20260505001510 | 59 | 178 | 5.0 | 10.0 | 0.00 | 0.02 | 0.00 | 76 | 1016.7 |
| 20260505001011 | 59 | 165 | 4.0 | 8.0 | 0.00 | 0.02 | 0.00 | 76 | 1016.7 |
| 20260505000510 | 59 | 177 | 5.0 | 9.0 | 0.00 | 0.02 | 0.00 | 76 | 1016.6 |
| 20260504235510 | 59 | 164 | 3.0 | 7.0 | 0.00 | 0.02 | 0.00 | 76 | 1016.6 |
| 20260504234510 | 60 | 168 | 5.0 | 10.0 | 0.00 | 0.02 | 0.00 | 75 | 1016.5 |
| 20260504234011 | 60 | 181 | 5.0 | 9.0 | 0.00 | 0.02 | 0.00 | 75 | 1016.5 |
| 20260504233510 | 60 | 165 | 5.0 | 9.0 | 0.00 | 0.02 | 0.00 | 75 | 1016.4 |
| 20260504233011 | 60 | 176 | 5.0 | 8.0 | 0.00 | 0.02 | 0.00 | 75 | 1016.3 |
| 20260504232510 | 60 | 171 | 5.0 | 10.0 | 0.00 | 0.02 | 0.00 | 76 | 1016.3 |
| 20260504232012 | 60 | 160 | 4.0 | 9.0 | 0.00 | 0.02 | 0.00 | 77 | 1016.3 |
| 20260504231011 | 59 | 162 | 5.0 | 12.0 | 0.00 | 0.02 | 0.00 | 81 | 1016.1 |
| 20260504230510 | 58 | 214 | 3.0 | 8.0 | 0.00 | 0.02 | 0.00 | 81 | 1016.1 |
| 20260504225510 | 58 | 183 | 2.0 | 6.0 | 0.00 | 0.02 | 0.00 | 81 | 1016.1 |
| 20260504224510 | 58 | 182 | 2.0 | 9.0 | 0.00 | 0.02 | 0.00 | 82 | 1016.0 |
| 20260504224012 | 58 | 45 | 4.0 | 8.0 | 0.00 | 0.02 | 0.00 | 83 | 1016.0 |
| 20260504222510 | 57 | 185 | 5.0 | 12.0 | 0.00 | 0.02 | 0.00 | 84 | 1015.6 |
| 20260504222011 | 57 | 136 | 4.0 | 8.0 | 0.00 | 0.02 | 0.00 | 84 | 1015.6 |
| 20260504220510 | 57 | 176 | 2.0 | 5.0 | 0.00 | 0.02 | 0.00 | 84 | 1015.2 |
| 20260504215510 | 56 | 181 | 2.0 | 8.0 | 0.00 | 0.02 | 0.00 | 85 | 1015.1 |
| 20260504215011 | 56 | 187 | 3.0 | 7.0 | 0.00 | 0.02 | 0.00 | 85 | 1015.0 |
| 20260504214510 | 56 | 194 | 5.0 | 9.0 | 0.00 | 0.02 | 0.00 | 85 | 1014.9 |
| 20260504214012 | 56 | 169 | 4.0 | 9.0 | 0.00 | 0.02 | 0.00 | 85 | 1014.8 |
| 20260504213510 | 56 | 190 | 5.0 | 9.0 | 0.00 | 0.02 | 0.00 | 85 | 1014.7 |
| 20260504213012 | 56 | 190 | 2.0 | 9.0 | 0.00 | 0.02 | 0.00 | 85 | 1014.5 |
| 20260504212011 | 56 | 186 | 2.0 | 8.0 | 0.00 | 0.02 | 0.00 | 85 | 1014.4 |
| 20260504211510 | 56 | 186 | 3.0 | 7.0 | 0.00 | 0.02 | 0.00 | 85 | 1014.3 |
| 20260504211011 | 56 | 185 | 4.0 | 6.0 | 0.00 | 0.02 | 0.00 | 85 | 1014.3 |
| 20260504210012 | 56 | 178 | 3.0 | 7.0 | 0.00 | 0.02 | 0.00 | 84 | 1014.2 |
| 20260504205509 | 57 | 170 | 3.0 | 7.0 | 0.00 | 0.02 | 0.00 | 84 | 1014.2 |
| 20260504205011 | 57 | 183 | 3.0 | 9.0 | 0.00 | 0.02 | 0.00 | 84 | 1014.1 |
| 20260504204510 | 56 | 180 | 4.0 | 8.0 | 0.00 | 0.02 | 0.00 | 84 | 1014.0 |
| 20260504204011 | 56 | 200 | 3.0 | 8.0 | 0.00 | 0.02 | 0.00 | 84 | 1014.0 |
| 20260504203510 | 56 | 186 | 5.0 | 7.0 | 0.00 | 0.02 | 0.00 | 83 | 1013.8 |
| 20260504203011 | 56 | 173 | 2.0 | 7.0 | 0.00 | 0.02 | 0.00 | 83 | 1013.7 |
| 20260504201509 | 56 | 166 | 4.0 | 7.0 | 0.00 | 0.02 | 0.00 | 83 | 1013.4 |
| 20260504201011 | 56 | 185 | 3.0 | 5.0 | 0.00 | 0.02 | 0.00 | 83 | 1013.3 |
| 20260504200510 | 56 | 168 | 4.0 | 8.0 | 0.00 | 0.02 | 0.00 | 82 | 1013.3 |
| 20260504200012 | 57 | 180 | 3.0 | 8.0 | 0.00 | 0.02 | 0.00 | 82 | 1013.2 |
| 20260504195510 | 57 | 179 | 3.0 | 6.0 | 0.00 | 0.02 | 0.00 | 82 | 1013.1 |
| 20260504195011 | 57 | 184 | 3.0 | 7.0 | 0.00 | 0.02 | 0.00 | 81 | 1013.0 |
| 20260504194011 | 57 | 180 | 3.0 | 7.0 | 0.00 | 0.02 | 0.00 | 82 | 1013.1 |
| 20260504193510 | 57 | 177 | 4.0 | 8.0 | 0.00 | 0.02 | 0.00 | 82 | 1013.0 |
| 20260504193011 | 57 | 171 | 3.0 | 7.0 | 0.00 | 0.02 | 0.00 | 82 | 1013.0 |
| 20260504192510 | 57 | 186 | 3.0 | 12.0 | 0.00 | 0.02 | 0.00 | 81 | 1013.0 |
| 20260504192010 | 57 | 171 | 5.0 | 12.0 | 0.00 | 0.02 | 0.00 | 81 | 1012.9 |
| 20260504190510 | 57 | 173 | 3.0 | 10.0 | 0.00 | 0.02 | 0.00 | 81 | 1012.6 |
| 20260504190012 | 57 | 181 | 5.0 | 10.0 | 0.00 | 0.02 | 0.00 | 81 | 1012.6 |
| 20260504185510 | 57 | 166 | 2.0 | 5.0 | 0.00 | 0.02 | 0.00 | 81 | 1012.5 |
| 20260504184011 | 57 | 191 | 4.0 | 10.0 | 0.00 | 0.02 | 0.00 | 81 | 1012.3 |
| 20260504183509 | 57 | 176 | 4.0 | 7.0 | 0.00 | 0.02 | 0.00 | 81 | 1012.3 |
| 20260504183011 | 57 | 170 | 5.0 | 9.0 | 0.00 | 0.02 | 0.00 | 80 | 1012.2 |
| 20260504182509 | 57 | 191 | 4.0 | 8.0 | 0.00 | 0.02 | 0.00 | 80 | 1012.1 |
| 20260504181510 | 57 | 181 | 4.0 | 9.0 | 0.00 | 0.02 | 0.00 | 80 | 1012.1 |
| 20260504181011 | 57 | 173 | 4.0 | 10.0 | 0.00 | 0.02 | 0.00 | 80 | 1012.0 |
| 20260504180510 | 57 | 176 | 3.0 | 8.0 | 0.00 | 0.02 | 0.00 | 79 | 1011.9 |
| 20260504180013 | 57 | 170 | 5.0 | 12.0 | 0.00 | 0.02 | 0.00 | 79 | 1011.8 |
| 20260504175510 | 57 | 175 | 4.0 | 9.0 | 0.00 | 0.02 | 0.00 | 79 | 1011.8 |
| 20260504175011 | 57 | 182 | 5.0 | 8.0 | 0.00 | 0.02 | 0.00 | 79 | 1011.8 |
| 20260504174509 | 58 | 176 | 3.0 | 8.0 | 0.00 | 0.02 | 0.00 | 79 | 1011.7 |
| 20260504174011 | 58 | 174 | 6.0 | 12.0 | 0.00 | 0.02 | 0.00 | 78 | 1011.7 |
| 20260504173509 | 58 | 173 | 5.0 | 12.0 | 0.00 | 0.02 | 0.00 | 78 | 1011.7 |
| 20260504173012 | 58 | 171 | 5.0 | 13.0 | 0.00 | 0.02 | 0.00 | 78 | 1011.7 |
| 20260504172509 | 58 | 180 | 5.0 | 13.0 | 0.00 | 0.02 | 0.00 | 77 | 1011.6 |
| 20260504172011 | 58 | 178 | 6.0 | 10.0 | 0.00 | 0.02 | 0.00 | 77 | 1011.6 |
| 20260504171511 | 58 | 177 | 5.0 | 10.0 | 0.00 | 0.02 | 0.00 | 77 | 1011.4 |
| 20260504170510 | 58 | 180 | 5.0 | 13.0 | 0.00 | 0.02 | 0.00 | 76 | 1011.3 |
| 20260504151011 | 58 | 171 | 7.0 | 15.0 | 0.00 | 0.02 | 0.00 | 75 | 1010.7 |
| 20260504150510 | 58 | 168 | 5.0 | 10.0 | 0.00 | 0.02 | 0.00 | 76 | 1010.6 |
| 20260504141006 | 59 | 182 | 3.0 | 8.0 | 0.00 | 0.02 | 0.00 | 77 | 1010.1 |
| 20260504140509 | 59 | 173 | 4.0 | 12.0 | 0.00 | 0.02 | 0.00 | 77 | 1010.0 |
| 20260504130510 | 59 | 186 | 5.0 | 12.0 | 0.01 | 0.02 | 0.02 | 79 | 1009.9 |